Location: Azalea Creek
(37.1280°N, 119.2623°W)
Time: 20:52:24
(UTC+00:00)

Cosmos 2173 Rocket - Pass Details

Date: 17 February 2020
Orbit: 944 x 1002 km, 83.0° (Epoch: 07 April)

Event Time Altitude Azimuth Distance (km) Brightness Sun altitude
Rises 02:28:22 0° 191° (S) 3,690 7.3 -10.7°
Reaches altitude 10° 02:30:53 10° 193° (SSW) 2,750 6.6 -11.2°
Maximum altitude 02:37:12 72° 277° (W) 1,048 4.4 -12.5°
Drops below altitude 10° 02:43:35 10° 2° (N) 2,780 6.3 -13.7°
Sets 02:46:09 0° 5° (N) 3,732 7.0 -14.3°
